Date,TemperatureHighF,TemperatureAvgF,TemperatureLowF,DewpointHighF,DewpointAvgF,DewpointLowF,HumidityHigh,HumidityAvg,HumidityLow,PressureMaxIn,PressureMinIn,WindSpeedMaxMPH,WindSpeedAvgMPH,GustSpeedMaxMPH,PrecipitationSumIn
2013-3-1,44,38,34,41,37,33,98,95,84,30.52,30.41,7,3,10,0.04
2013-3-2,45,38,34,40,36,33,98,92,80,30.41,30.02,9,3,14,0.23
2013-3-3,40,32,19,39,25,18,98,79,62,30.24,29.98,19,8,35,0.06
2013-3-4,41,29,19,26,22,17,96,75,45,30.38,30.18,6,2,9,0.00
2013-3-5,42,34,26,29,24,20,81,68,55,30.18,29.83,15,5,15,0.00
2013-3-6,48,36,31,41,33,28,98,88,73,29.96,29.62,16,3,22,0.41
2013-3-7,45,36,30,32,29,27,97,78,50,30.12,29.96,5,1,6,0.21
2013-3-8,45,34,26,34,28,24,93,79,57,30.18,30.03,13,4,13,0.00
2013-3-9,46,34,25,34,29,24,97,83,61,30.49,30.18,6,1,11,0.00
2013-3-10,44,35,28,34,30,26,98,83,51,30.50,30.36,7,2,14,0.12
2013-3-11,45,37,31,37,33,29,99,85,62,30.36,30.29,12,4,14,0.00
2013-3-12,48,39,32,44,37,30,97,91,80,30.29,30.16,8,3,10,0.10
2013-3-13,54,44,38,45,41,37,97,87,68,30.26,30.17,8,3,10,0.00
2013-3-14,55,47,39,44,39,36,92,76,52,30.20,30.03,12,3,14,0.00
2013-3-15,54,46,34,42,38,33,92,74,58,30.17,30.08,13,5,19,0.00
2013-3-16,46,39,31,39,35,30,96,86,69,30.09,29.77,23,4,31,0.11
2013-3-17,37,30,26,30,26,24,97,86,61,30.14,29.81,20,10,32,0.00
2013-3-18,40,32,25,33,26,19,97,79,51,30.25,30.07,23,6,30,0.08
2013-3-19,46,35,22,34,27,18,93,73,52,30.33,29.91,16,5,16,0.00
2013-3-20,51,41,33,44,34,28,94,78,53,29.91,29.53,18,6,27,0.30
2013-3-21,34,30,26,29,25,21,96,81,64,30.11,29.86,19,8,26,0.00
2013-3-22,34,27,21,27,24,20,96,87,71,30.35,30.10,22,5,23,0.01
2013-3-23,37,28,19,27,24,18,97,86,57,30.43,30.35,11,2,16,0.03
2013-3-24,42,31,22,26,21,14,93,70,34,30.41,30.24,9,4,18,0.00
2013-3-25,48,35,25,30,25,21,86,68,41,30.24,30.03,10,4,14,0.00
2013-3-26,53,42,30,37,32,27,92,70,43,30.03,29.97,8,3,11,0.00
2013-3-27,55,45,36,41,36,32,92,72,51,30.02,29.96,10,2,16,0.00
2013-3-28,56,46,38,45,40,35,96,82,60,30.10,30.01,9,2,10,0.02
2013-3-29,54,46,40,46,42,39,96,87,68,30.25,30.11,6,2,9,0.03
2013-3-30,60,44,36,45,37,30,99,83,34,30.32,30.20,8,4,10,0.00
2013-3-31,68,54,35,41,33,25,94,51,23,30.09,29.92,5,1,8,0.00